sat.trackr.live / text

‹ back to catalog

STARLINK-30333

NORAD 57702 · 2023-129E

PAYLOAD ACTIVE UNKNOWN

§ Identity

Operator
Country
US
Launch date
2023-08-27
Launch site
AFETR
Launch vehicle
Mass (kg)
RCS (m²)

Purposes: comms

External: N2YO · Heavens-Above · Gunter

§ Orbital elements

Epoch: 2026-09-20T21:56:41.829792Z

Period
94.27 min
Inclination
43.0043°
Eccentricity
0.0001329
Mean motion
15.27572361 rev/d
Perigee alt
482.2 km
Apogee alt
484.0 km
Semi-major
6,861.2 km
B*
-8.5959e-6
RAAN
95.0447°
Arg perigee
276.6151°
Mean anomaly
83.4549°
Rev number
17,054

§ Raw data

STARLINK-303331 57702U 23129E   26263.91437303 -.00000499  00000+0 -85959-5 0  99912 57702  43.0043  95.0447 0001329 276.6151  83.4549 15.27572361170548

JSON: /api/v1/satellites/57702 · /tle

For live sub-satellite position, see the globe view (requires WebGL).

§ Visibility from observer

Set your observer location to see the next 7 days of passes ≥ 10°. The values pass through the URL so the page stays shareable.

No JS? Fill the form by hand. The geolocation button needs JavaScript.